Wind_Speed
22 22 22 23 23 23 23 22 22 22 22 22 22 21 22 22 23 23 23 24 24 25 25 25 25 25 25 25 26 26 26 25 25 24 25 25 25 25 26 26 26 26 26
22 21 21 22 22 22 21 20 20 21 21 20 20 21 21 21 22 22 22 23 23 23 23 23 22 23 23 23 23 23 24 24 23 22 23 23 23 23 24 24 24 25 25
21 21 21 20 20 20 19 19 19 19 19 19 20 20 20 20 20 20 21 20 20 21 21 20 20 20 20 20 20 20 21 21 21 21 22 22 22 21 21 22 22 22 22
20 19 19 19 18 18 17 17 17 17 17 17 18 18 18 18 18 18 18 17 18 17 17 17 17 17 17 17 18 18 18 19 20 20 20 20 20 19 19 19 19 19 20
18 17 17 17 17 17 16 15 15 15 16 16 16 16 16 15 15 15 15 15 15 14 14 15 15 15 15 15 16 17 17 17 17 17 17 17 17 17 16 16 17 17 17
15 16 16 16 15 15 15 15 14 14 14 14 13 13 13 13 13 13 14 13 13 13 14 13 13 12 12 12 13 13 13 13 13 13 13 12 12 13 13 14 14 14 14
13 14 15 15 14 14 14 13 13 12 12 12 12 11 11 11 12 12 12 12 11 11 11 11 10 10 10 10 9 9 8 8 8 9 8 8 9 10 10 11 11 12 12
11 12 13 13 12 11 11 11 10 10 10 10 10 11 11 11 11 12 11 11 10 10 9 8 8 7 7 7 6 6 5 5 4 4 5 5 6 6 7 7 7 8 8
10 11 11 10 10 9 10 10 10 9 8 8 9 10 10 11 10 10 10 10 9 9 8 7 7 7 7 6 4 3 3 2 2 2 3 4 4 4 3 4 5 5 5
9 10 10 9 9 9 9 9 9 8 8 8 8 8 9 9 10 10 9 9 9 9 8 8 7 6 6 5 4 4 3 2 1 0 1 2 3 2 1 2 3 4 4
9 8 8 9 8 8 8 8 8 8 7 7 7 8 8 9 9 9 9 9 9 9 9 9 9 7 6 6 5 5 4 3 3 2 1 0 1 2 2 2 3 3 4
7 7 7 7 7 7 7 7 7 7 7 7 8 8 8 9 9 9 9 9 10 9 9 9 9 9 7 7 6 5 4 4 4 3 2 1 1 1 1 2 2 3 3
5 6 6 5 6 6 6 5 7 7 7 7 7 8 8 8 8 8 8 9 9 9 9 9 9 9 9 8 7 6 5 4 4 4 3 2 1 2 3 2 2 2 3
4 5 5 5 5 5 5 6 6 7 7 7 7 8 7 8 8 8 9 9 9 10 10 10 10 9 9 8 7 6 6 5 4 4 3 3 3 3 3 3 3 4 5
4 4 5 5 5 5 5 6 6 7 7 8 8 7 7 7 8 9 9 9 10 10 10 10 10 9 8 8 8 8 7 6 5 4 3 3 4 4 3 4 5 5 6
3 4 4 5 5 5 5 6 6 7 7 7 7 7 6 6 7 8 9 9 9 10 10 10 9 9 9 8 8 7 7 6 6 5 4 4 4 4 4 5 5 6 7
4 4 5 5 5 5 5 5 6 6 6 6 6 6 6 6 7 7 7 8 8 9 9 9 8 8 8 8 8 8 7 7 6 5 5 5 5 6 6 6 7 8 8
4 4 4 4 4 4 4 4 5 6 6 6 6 5 5 6 7 7 7 7 7 7 7 7 8 8 8 8 8 8 7 7 6 6 6 6 7 8 8 9 10 10 11
4 4 4 4 4 4 4 4 4 5 5 5 5 4 4 5 6 6 6 6 6 6 7 7 8 7 7 8 8 7 7 7 7 8 8 8 9 9 10 11 12 12 13
4 4 4 4 4 4 4 4 5 5 5 5 4 4 5 5 5 5 5 6 6 6 7 7 8 8 8 8 8 8 8 9 9 10 10 11 10 11 12 12 12 14 15
4 4 4 4 5 5 5 5 5 6 5 5 5 5 6 6 6 6 6 6 7 8 8 8 8 9 9 10 10 10 10 11 11 11 12 12 13 14 14 15 16 17 18
4 4 4 4 5 5 5 6 6 6 6 6 7 7 7 7 8 8 8 9 9 10 10 10 11 11 12 12 12 13 13 14 14 14 15 15 16 17 18 18 19 20 21
5 5 5 5 5 6 6 7 7 7 8 8 9 9 9 9 9 10 11 11 12 12 13 13 14 14 14 14 15 15 16 17 17 17 17 18 19 20 21 22 22 23 24
6 6 6 6 7 7 8 8 8 9 9 10 10 11 11 12 12 13 13 14 15 16 16 16 16 17 17 17 18 18 19 19 19 20 20 21 22 23 23 24 25 26 26
7 7 8 8 8 9 9 9 10 10 11 12 12 13 13 14 15 15 16 16 17 18 19 20 20 20 20 20 21 22 22 22 22 23 24 24 25 26 27 27 28 28 29
8 8 9 10 10 11 11 11 11 12 13 13 14 15 15 16 16 17 18 19 19 20 21 22 22 23 24 24 24 25 25 26 26 26 27 27 28 29 29 30 31 31 32
Wind_Direction
303 301 301 301 301 301 299 297 294 294 292 291 292 292 292 290 289 289 289 289 288 286 285 284 282 279 277 273 271 269 268 267 267 266 265 265 264 263 261 261 260 259 260
306 305 305 305 303 302 300 298 296 296 294 293 294 294 295 296 294 293 293 293 291 287 286 285 283 281 280 277 274 271 270 269 268 266 265 265 263 262 260 260 259 260 259
306 306 306 305 305 305 304 301 301 300 299 298 298 297 299 301 299 298 297 295 293 290 288 287 286 284 282 279 276 272 271 270 268 267 265 266 263 262 260 260 259 260 259
305 305 306 308 308 307 306 306 305 303 302 301 301 301 302 302 302 303 301 298 296 294 292 289 288 286 285 281 276 273 272 270 269 268 268 265 261 260 260 261 261 260 259
307 307 310 312 312 311 310 310 311 309 308 308 308 307 307 306 306 307 306 304 302 301 300 298 296 293 288 285 279 275 273 271 269 268 267 262 260 259 260 260 259 258 258
310 311 312 315 315 314 314 313 313 315 317 318 320 320 318 318 319 316 312 310 307 306 306 304 303 298 298 294 285 280 276 272 268 264 264 259 257 257 257 256 257 257 255
313 315 316 316 317 317 317 319 321 321 323 324 324 323 326 328 328 326 323 322 320 318 318 317 314 309 306 306 297 288 280 273 268 263 261 258 257 254 255 256 256 257 256
314 319 321 320 319 319 323 326 327 328 332 333 332 331 333 332 328 329 331 333 331 329 330 331 331 330 326 321 309 296 286 281 274 263 257 253 253 251 252 251 254 255 255
321 325 327 326 327 323 323 329 332 336 340 340 339 339 342 343 340 341 344 345 342 340 341 341 341 344 348 349 345 340 333 315 282 256 248 242 247 251 251 250 249 246 251
323 323 323 326 332 334 334 337 340 339 339 338 341 347 348 354 358 1 4 6 5 5 4 1 358 358 359 6 16 23 24 22 16 7 221 218 224 254 277 253 245 251 255
326 330 331 330 330 333 341 347 348 348 348 348 350 355 357 358 3 10 14 15 14 16 17 18 17 17 20 23 34 43 45 55 66 64 41 343 268 264 266 270 267 264 262
331 337 338 339 342 345 347 349 352 354 359 359 359 358 360 4 9 13 15 16 19 22 23 23 24 28 35 39 49 59 60 57 56 53 41 27 12 297 281 285 282 280 283
343 344 343 347 357 360 3 3 1 2 4 5 8 9 10 14 18 21 21 20 24 30 33 36 34 36 43 49 55 56 55 50 43 43 44 38 7 330 326 317 310 319 312
357 1 3 2 2 9 21 16 9 10 10 10 14 17 20 24 29 30 28 31 37 40 41 42 43 44 46 47 51 52 51 47 46 44 37 22 2 346 326 321 324 318 314
6 11 12 10 9 13 21 20 19 20 20 23 25 26 32 39 39 40 42 44 46 45 44 43 44 46 49 46 43 43 40 36 32 29 26 12 4 356 347 332 325 319 316
14 16 17 21 25 27 25 25 24 22 20 22 27 30 36 39 39 42 45 46 46 45 43 42 43 44 45 41 35 31 29 24 22 23 19 16 11 0 341 330 326 321 319
14 20 20 26 32 30 28 26 25 24 22 24 30 35 34 32 32 39 42 43 43 41 40 37 37 34 32 29 26 23 18 15 14 12 3 354 349 346 340 331 327 324 321
17 16 17 22 22 20 21 19 18 23 24 21 20 25 29 28 28 28 30 31 33 32 28 25 23 22 21 16 13 13 11 4 357 349 343 338 333 332 328 323 321 318 318
15 13 15 20 18 11 7 4 6 9 11 10 9 10 13 15 15 14 14 15 14 12 9 8 5 3 3 3 2 359 355 350 343 336 331 327 323 320 319 318 317 316 316
20 15 12 10 6 0 358 355 354 351 350 349 350 351 347 344 347 351 353 351 348 347 346 348 348 345 344 344 344 341 337 332 327 323 322 320 316 316 316 314 314 314 314
18 16 11 5 2 356 349 345 344 341 338 334 332 331 331 331 331 330 326 325 328 327 328 327 327 327 328 330 330 328 324 323 321 319 318 316 315 315 314 312 311 310 311
15 8 3 1 359 353 345 340 338 335 330 328 326 323 319 316 316 315 312 311 314 314 314 315 314 314 314 315 315 316 316 316 314 313 312 311 312 313 312 310 309 308 309
9 2 356 353 351 347 339 334 330 327 323 320 318 316 315 315 313 310 307 306 305 305 305 306 308 308 307 307 307 308 308 307 306 307 307 306 306 307 308 308 308 307 307
3 355 348 344 341 337 332 327 324 321 319 316 313 312 312 312 310 307 306 303 301 302 303 302 302 302 302 303 304 304 304 303 303 303 303 303 303 304 305 306 306 306 307
353 348 344 339 334 330 327 325 323 320 318 315 314 313 312 311 309 306 305 305 303 303 303 304 305 304 301 300 300 301 301 301 302 302 302 301 301 301 303 303 304 305 306
348 345 340 335 331 328 326 323 320 318 316 315 313 313 311 310 309 307 306 305 305 305 304 304 304 303 304 303 301 300 300 300 299 299 299 299 300 300 301 302 302 303 303
Height
5796 5793 5789 5786 5783 5780 5777 5774 5772 5769 5767 5765 5762 5760 5757 5755 5753 5752 5750 5748 5746 5744 5743 5741 5739 5737 5736 5735 5735 5735 5735 5735 5735 5735 5736 5736 5737 5737 5737 5738 5739 5740 5741
5790 5787 5784 5781 5777 5774 5771 5769 5766 5764 5761 5759 5757 5754 5752 5750 5747 5745 5743 5741 5739 5737 5735 5734 5732 5730 5729 5728 5727 5727 5727 5727 5728 5728 5728 5729 5729 5730 5730 5731 5732 5733 5734
5785 5782 5779 5776 5773 5769 5767 5764 5761 5759 5756 5754 5751 5749 5747 5744 5742 5740 5737 5735 5733 5731 5729 5728 5726 5724 5723 5721 5721 5721 5721 5721 5721 5721 5722 5722 5723 5724 5724 5725 5725 5726 5727
5780 5777 5774 5771 5768 5765 5762 5760 5757 5754 5752 5749 5747 5744 5742 5739 5737 5735 5732 5730 5728 5726 5724 5722 5720 5718 5717 5716 5715 5715 5715 5715 5715 5715 5715 5716 5717 5717 5718 5719 5719 5720 5721
5775 5773 5770 5767 5764 5762 5759 5756 5753 5751 5748 5745 5743 5740 5737 5735 5733 5731 5729 5726 5724 5722 5720 5718 5715 5714 5712 5711 5710 5709 5709 5709 5709 5709 5709 5710 5711 5711 5712 5713 5714 5714 5715
5771 5769 5766 5764 5761 5758 5756 5753 5750 5747 5745 5742 5740 5737 5735 5733 5730 5728 5726 5723 5721 5719 5716 5714 5712 5710 5708 5706 5705 5705 5704 5704 5704 5705 5705 5706 5706 5707 5708 5708 5709 5709 5710
5768 5766 5763 5761 5758 5755 5753 5750 5747 5745 5742 5740 5738 5736 5733 5731 5728 5726 5723 5721 5718 5716 5713 5711 5709 5707 5705 5704 5702 5702 5701 5701 5701 5702 5702 5703 5703 5704 5704 5705 5705 5705 5706
5765 5763 5760 5758 5755 5753 5750 5748 5745 5743 5741 5739 5737 5734 5732 5729 5726 5724 5721 5719 5717 5714 5712 5709 5707 5705 5703 5702 5700 5700 5699 5699 5699 5699 5700 5701 5701 5701 5702 5702 5702 5703 5703
5762 5760 5758 5756 5753 5751 5748 5746 5744 5742 5739 5738 5736 5733 5731 5728 5725 5723 5721 5718 5716 5713 5711 5709 5706 5704 5703 5701 5700 5699 5698 5698 5698 5698 5698 5699 5699 5700 5700 5700 5701 5701 5701
5760 5758 5756 5754 5752 5749 5747 5745 5743 5741 5739 5737 5735 5732 5730 5728 5725 5723 5721 5718 5716 5713 5711 5708 5706 5704 5703 5701 5700 5699 5698 5698 5698 5698 5698 5698 5699 5699 5699 5699 5699 5700 5700
5758 5756 5754 5752 5750 5748 5746 5744 5742 5740 5738 5736 5734 5732 5730 5728 5726 5723 5721 5719 5716 5714 5711 5709 5707 5705 5704 5702 5701 5700 5699 5699 5698 5698 5699 5699 5699 5699 5699 5699 5699 5699 5699
5756 5754 5753 5751 5749 5747 5745 5744 5742 5740 5738 5736 5734 5733 5731 5729 5726 5724 5722 5720 5718 5715 5713 5711 5709 5706 5705 5703 5702 5702 5701 5700 5700 5699 5699 5699 5699 5699 5699 5698 5698 5698 5698
5755 5753 5752 5750 5748 5746 5745 5743 5742 5740 5738 5736 5734 5733 5731 5729 5727 5725 5723 5721 5719 5717 5714 5712 5710 5708 5707 5705 5704 5703 5703 5702 5701 5701 5700 5700 5699 5699 5699 5698 5698 5697 5697
5754 5753 5751 5749 5748 5746 5745 5743 5742 5740 5738 5736 5735 5733 5731 5730 5728 5726 5724 5722 5720 5718 5716 5715 5713 5711 5709 5708 5707 5706 5705 5704 5703 5702 5701 5701 5700 5699 5698 5698 5697 5697 5696
5753 5752 5751 5749 5748 5746 5745 5743 5742 5740 5739 5737 5735 5734 5732 5731 5730 5728 5726 5724 5722 5720 5719 5717 5715 5713 5712 5710 5709 5708 5706 5705 5704 5703 5702 5702 5701 5700 5699 5698 5697 5696 5695
5753 5752 5750 5749 5748 5746 5745 5744 5742 5741 5740 5738 5736 5735 5734 5732 5731 5729 5727 5726 5724 5723 5721 5719 5718 5716 5714 5712 5711 5710 5708 5707 5706 5704 5703 5702 5701 5700 5699 5698 5697 5696 5694
5752 5751 5750 5749 5748 5747 5746 5744 5743 5742 5740 5739 5737 5736 5735 5733 5732 5730 5729 5727 5726 5724 5723 5721 5719 5718 5716 5714 5712 5711 5709 5708 5707 5705 5704 5703 5702 5700 5699 5697 5696 5695 5693
5752 5751 5750 5749 5748 5747 5746 5745 5744 5742 5741 5740 5738 5737 5736 5734 5733 5731 5730 5729 5727 5726 5724 5723 5721 5719 5717 5716 5714 5712 5710 5709 5707 5706 5704 5702 5701 5700 5698 5696 5695 5693 5691
5752 5751 5750 5749 5748 5747 5746 5745 5744 5743 5741 5740 5739 5737 5736 5735 5733 5732 5731 5729 5728 5727 5725 5723 5722 5720 5718 5716 5715 5713 5711 5709 5707 5705 5703 5702 5700 5698 5696 5694 5692 5690 5688
5752 5751 5750 5749 5748 5747 5746 5745 5744 5743 5741 5740 5739 5738 5736 5735 5734 5732 5731 5729 5728 5727 5725 5723 5722 5720 5718 5716 5714 5713 5711 5709 5707 5705 5702 5700 5698 5696 5694 5692 5690 5687 5685
5752 5751 5750 5749 5748 5747 5746 5745 5744 5742 5741 5740 5739 5737 5736 5734 5733 5731 5730 5729 5727 5726 5724 5722 5720 5719 5717 5715 5713 5711 5709 5707 5705 5703 5701 5698 5696 5693 5691 5689 5686 5684 5681
5752 5751 5750 5749 5748 5747 5746 5745 5743 5742 5741 5739 5738 5736 5735 5733 5732 5730 5729 5727 5725 5724 5722 5720 5719 5717 5715 5713 5711 5709 5707 5705 5702 5700 5698 5695 5693 5690 5687 5685 5682 5679 5676
5752 5751 5750 5749 5748 5746 5745 5744 5742 5741 5739 5738 5736 5735 5733 5731 5730 5728 5726 5725 5723 5721 5719 5717 5715 5713 5711 5709 5707 5705 5703 5701 5698 5696 5693 5691 5688 5686 5682 5679 5676 5673 5670
5752 5751 5750 5749 5747 5746 5744 5742 5741 5739 5738 5736 5734 5732 5730 5728 5727 5725 5723 5721 5719 5717 5715 5713 5711 5709 5707 5705 5702 5700 5698 5696 5693 5691 5688 5686 5683 5680 5677 5673 5670 5667 5663
5752 5751 5749 5748 5746 5744 5743 5741 5739 5737 5735 5734 5732 5730 5728 5725 5723 5721 5719 5717 5715 5713 5710 5708 5706 5704 5701 5699 5697 5694 5692 5689 5687 5684 5681 5679 5676 5673 5669 5666 5663 5659 5655
5751 5750 5748 5747 5745 5743 5741 5739 5737 5735 5733 5731 5729 5727 5724 5722 5719 5717 5715 5712 5710 5708 5705 5703 5700 5698 5695 5692 5690 5687 5685 5682 5679 5676 5674 5671 5668 5665 5661 5658 5654 5650 5647